Tracking 29090 objects as of 16-Jul-2024
HD Live streaming from Space Station
objects crossing your sky now

MIDAS 3

Track MIDAS 3 now!
10-day predictions
MIDAS 3 is classified as:


NORAD ID: 163
Int'l Code: 1961-018A
Perigee: 3,355.1 km
Apogee: 3,547.5 km
Inclination: 91.1 °
Period: 161.5 minutes
Semi major axis: 9822 km
RCS: 10.0428 m2 (large)
Launch date: July 12, 1961
Source: United States (US)
Launch site: AIR FORCE WESTERN TEST RANGE (AFWTR)
Your satellite tracking list
Your tracking list is empty




NASA's NSSDC Master Catalog

Two Line Element Set (TLE):
1 00163U 61018A   24197.48449344  .00000029  00000-0  99234-2 0  9999
2 00163  91.0945 175.3098 0097948 205.2970 154.3086  8.91835828 51459
Source of the keplerian elements: AFSPC